Tracking 28052 objects as of 22-Sep-2023
HD Live streaming from Space Station
objects crossing your sky now

AMOS 17

Track AMOS 17 now!
AMOS 17 is classified as:


NORAD ID: 44479
Int'l Code: 2019-050A
Perigee: 35,786.2 km
Apogee: 35,800.1 km
Inclination: 0.0 °
Period: 1,436.1 minutes
Semi major axis: 42164 km
RCS: Unknown
Launch date: August 6, 2019
Source: Israel (ISRA)
Launch site: AIR FORCE EASTERN TEST RANGE (AFETR)
Your satellite tracking list
Your tracking list is empty




NASA's NSSDC Master Catalog

Two Line Element Set (TLE):
1 44479U 19050A   23264.32842569  .00000115  00000-0  00000-0 0  9996
2 44479   0.0165 215.3727 0001652 328.2329 311.5910  1.00273796 15160
Source of the keplerian elements: AFSPC